owner,sensor,date,latitude,longitude,air_pressure(mBar),qcFlag 
COMPS,ioos:station:USF.COMPS:ANM:1,2009-11-01T00:00:00Z,27.5400,-82.7400,1005.97,1111122 
COMPS,ioos:station:USF.COMPS:ANM:1,2009-11-01T00:06:00Z,27.5400,-82.7400,1006.02,1111122 
COMPS,ioos:station:USF.COMPS:ANM:1,2009-11-01T00:12:00Z,27.5400,-82.7400,1006.1,1111122 
COMPS,ioos:station:USF.COMPS:ANM:1,2009-11-01T00:18:00Z,27.5400,-82.7400,1006.18,1111122 
COMPS,ioos:station:USF.COMPS:ANM:1,2009-11-01T00:24:00Z,27.5400,-82.7400,1006.29,1111122 
COMPS,ioos:station:USF.COMPS:ANM:1,2009-11-01T00:30:00Z,27.5400,-82.7400,1006.33,1111122 
COMPS,ioos:station:USF.COMPS:ANM:1,2009-11-01T00:36:00Z,27.5400,-82.7400,1006.36,1111122 
COMPS,ioos:station:USF.COMPS:ANM:1,2009-11-01T00:42:00Z,27.5400,-82.7400,1006.18,1111122 
COMPS,ioos:station:USF.COMPS:ANM:1,2009-11-01T00:48:00Z,27.5400,-82.7400,1006.14,1111122 
COMPS,ioos:station:USF.COMPS:ANM:1,2009-11-01T00:54:00Z,27.5400,-82.7400,1006.16,1111122 
COMPS,ioos:station:USF.COMPS:ANM:1,2009-11-01T01:00:00Z,27.5400,-82.7400,1006.12,1111122 
COMPS,ioos:station:USF.COMPS:ANM:1,2009-11-01T01:06:00Z,27.5400,-82.7400,1006.12,1111122 
COMPS,ioos:station:USF.COMPS:ANM:1,2009-11-01T01:12:00Z,27.5400,-82.7400,1006.13,1111122 
COMPS,ioos:station:USF.COMPS:ANM:1,2009-11-01T01:18:00Z,27.5400,-82.7400,1006.1,1111122 
COMPS,ioos:station:USF.COMPS:ANM:1,2009-11-01T01:24:00Z,27.5400,-82.7400,1006.13,1111122 
COMPS,ioos:station:USF.COMPS:ANM:1,2009-11-01T01:30:00Z,27.5400,-82.7400,1006.12,1111122 
COMPS,ioos:station:USF.COMPS:ANM:1,2009-11-01T01:36:00Z,27.5400,-82.7400,1006.17,1111122 
COMPS,ioos:station:USF.COMPS:ANM:1,2009-11-01T01:42:00Z,27.5400,-82.7400,1006.3,1111122 
COMPS,ioos:station:USF.COMPS:ANM:1,2009-11-01T01:48:00Z,27.5400,-82.7400,1006.3,1111122 
COMPS,ioos:station:USF.COMPS:ANM:1,2009-11-01T01:54:00Z,27.5400,-82.7400,1006.3,1111122 
COMPS,ioos:station:USF.COMPS:ANM:1,2009-11-01T02:00:00Z,27.5400,-82.7400,1006.3,1111122 
COMPS,ioos:station:USF.COMPS:ANM:1,2009-11-01T02:06:00Z,27.5400,-82.7400,1006.37,1111122 
COMPS,ioos:station:USF.COMPS:ANM:1,2009-11-01T02:12:00Z,27.5400,-82.7400,1006.42,1111122 
COMPS,ioos:station:USF.COMPS:ANM:1,2009-11-01T02:18:00Z,27.5400,-82.7400,1006.42,1111122 
COMPS,ioos:station:USF.COMPS:ANM:1,2009-11-01T02:24:00Z,27.5400,-82.7400,1006.45,1111122 
COMPS,ioos:station:USF.COMPS:ANM:1,2009-11-01T02:30:00Z,27.5400,-82.7400,1006.48,1111122 
COMPS,ioos:station:USF.COMPS:ANM:1,2009-11-01T02:36:00Z,27.5400,-82.7400,1006.48,1111122 
COMPS,ioos:station:USF.COMPS:ANM:1,2009-11-01T02:42:00Z,27.5400,-82.7400,1006.52,1111122 
COMPS,ioos:station:USF.COMPS:ANM:1,2009-11-01T02:48:00Z,27.5400,-82.7400,1006.52,1111122 
COMPS,ioos:station:USF.COMPS:ANM:1,2009-11-01T02:54:00Z,27.5400,-82.7400,1006.62,1111122 
COMPS,ioos:station:USF.COMPS:ANM:1,2009-11-01T03:00:00Z,27.5400,-82.7400,1006.56,1111122 
COMPS,ioos:station:USF.COMPS:ANM:1,2009-11-01T03:06:00Z,27.5400,-82.7400,1006.52,1111122 
COMPS,ioos:station:USF.COMPS:ANM:1,2009-11-01T03:12:00Z,27.5400,-82.7400,1006.56,1111122 
COMPS,ioos:station:USF.COMPS:ANM:1,2009-11-01T03:18:00Z,27.5400,-82.7400,1006.58,1111122 
COMPS,ioos:station:USF.COMPS:ANM:1,2009-11-01T03:24:00Z,27.5400,-82.7400,1006.64,1111122 
COMPS,ioos:station:USF.COMPS:ANM:1,2009-11-01T03:30:00Z,27.5400,-82.7400,1006.62,1111122 
COMPS,ioos:station:USF.COMPS:ANM:1,2009-11-01T03:36:00Z,27.5400,-82.7400,1006.52,1111122 
COMPS,ioos:station:USF.COMPS:ANM:1,2009-11-01T03:42:00Z,27.5400,-82.7400,1006.62,1111122 
COMPS,ioos:station:USF.COMPS:ANM:1,2009-11-01T03:48:00Z,27.5400,-82.7400,1006.66,1111122 
COMPS,ioos:station:USF.COMPS:ANM:1,2009-11-01T03:54:00Z,27.5400,-82.7400,1006.68,1111122 
COMPS,ioos:station:USF.COMPS:ANM:1,2009-11-01T04:00:00Z,27.5400,-82.7400,1006.65,1111122 
COMPS,ioos:station:USF.COMPS:ANM:1,2009-11-01T04:06:00Z,27.5400,-82.7400,1006.65,1111122 
COMPS,ioos:station:USF.COMPS:ANM:1,2009-11-01T04:12:00Z,27.5400,-82.7400,1006.54,1111122 
COMPS,ioos:station:USF.COMPS:ANM:1,2009-11-01T04:18:00Z,27.5400,-82.7400,1006.52,1111122 
COMPS,ioos:station:USF.COMPS:ANM:1,2009-11-01T04:24:00Z,27.5400,-82.7400,1006.5,1111122 
COMPS,ioos:station:USF.COMPS:ANM:1,2009-11-01T04:30:00Z,27.5400,-82.7400,1006.44,1111122 
COMPS,ioos:station:USF.COMPS:ANM:1,2009-11-01T04:36:00Z,27.5400,-82.7400,1006.4,1111122 
COMPS,ioos:station:USF.COMPS:ANM:1,2009-11-01T04:42:00Z,27.5400,-82.7400,1006.26,1111122 
COMPS,ioos:station:USF.COMPS:ANM:1,2009-11-01T04:48:00Z,27.5400,-82.7400,1006.16,1111122 
COMPS,ioos:station:USF.COMPS:ANM:1,2009-11-01T04:54:00Z,27.5400,-82.7400,1006.1,1111122 
COMPS,ioos:station:USF.COMPS:ANM:1,2009-11-01T05:00:00Z,27.5400,-82.7400,1006.1,1111122 
COMPS,ioos:station:USF.COMPS:ANM:1,2009-11-01T05:06:00Z,27.5400,-82.7400,1006.05,1111122 
COMPS,ioos:station:USF.COMPS:ANM:1,2009-11-01T05:12:00Z,27.5400,-82.7400,1006.01,1111122 
COMPS,ioos:station:USF.COMPS:ANM:1,2009-11-01T05:18:00Z,27.5400,-82.7400,1005.94,1111122 
COMPS,ioos:station:USF.COMPS:ANM:1,2009-11-01T05:24:00Z,27.5400,-82.7400,1005.93,1111122 
COMPS,ioos:station:USF.COMPS:ANM:1,2009-11-01T05:30:00Z,27.5400,-82.7400,1005.98,1111122 
COMPS,ioos:station:USF.COMPS:ANM:1,2009-11-01T05:36:00Z,27.5400,-82.7400,1005.92,1111122 
COMPS,ioos:station:USF.COMPS:ANM:1,2009-11-01T05:42:00Z,27.5400,-82.7400,1005.84,1111122 
COMPS,ioos:station:USF.COMPS:ANM:1,2009-11-01T05:48:00Z,27.5400,-82.7400,1005.73,1111122 
COMPS,ioos:station:USF.COMPS:ANM:1,2009-11-01T05:54:00Z,27.5400,-82.7400,1005.76,1111122 
COMPS,ioos:station:USF.COMPS:ANM:1,2009-11-01T06:00:00Z,27.5400,-82.7400,1005.76,1111122 
COMPS,ioos:station:USF.COMPS:ANM:1,2009-11-01T06:06:00Z,27.5400,-82.7400,1005.77,1111122 
COMPS,ioos:station:USF.COMPS:ANM:1,2009-11-01T06:12:00Z,27.5400,-82.7400,1005.78,1111122 
COMPS,ioos:station:USF.COMPS:ANM:1,2009-11-01T06:18:00Z,27.5400,-82.7400,1005.78,1111122 
COMPS,ioos:station:USF.COMPS:ANM:1,2009-11-01T06:24:00Z,27.5400,-82.7400,1005.81,1111122 
COMPS,ioos:station:USF.COMPS:ANM:1,2009-11-01T06:30:00Z,27.5400,-82.7400,1005.81,1111122 
COMPS,ioos:station:USF.COMPS:ANM:1,2009-11-01T06:36:00Z,27.5400,-82.7400,1005.77,1111122 
COMPS,ioos:station:USF.COMPS:ANM:1,2009-11-01T06:42:00Z,27.5400,-82.7400,1005.65,1111122 
COMPS,ioos:station:USF.COMPS:ANM:1,2009-11-01T06:48:00Z,27.5400,-82.7400,1005.53,1111122 
COMPS,ioos:station:USF.COMPS:ANM:1,2009-11-01T06:54:00Z,27.5400,-82.7400,1005.5,1111122 
COMPS,ioos:station:USF.COMPS:ANM:1,2009-11-01T07:00:00Z,27.5400,-82.7400,1005.53,1111122 
COMPS,ioos:station:USF.COMPS:ANM:1,2009-11-01T07:06:00Z,27.5400,-82.7400,1005.58,1111122 
COMPS,ioos:station:USF.COMPS:ANM:1,2009-11-01T07:12:00Z,27.5400,-82.7400,1005.56,1111122 
COMPS,ioos:station:USF.COMPS:ANM:1,2009-11-01T07:18:00Z,27.5400,-82.7400,1005.5,1111122 
COMPS,ioos:station:USF.COMPS:ANM:1,2009-11-01T07:24:00Z,27.5400,-82.7400,1005.44,1111122 
COMPS,ioos:station:USF.COMPS:ANM:1,2009-11-01T07:30:00Z,27.5400,-82.7400,1005.44,1111122 
COMPS,ioos:station:USF.COMPS:ANM:1,2009-11-01T07:36:00Z,27.5400,-82.7400,1005.44,1111122 
COMPS,ioos:station:USF.COMPS:ANM:1,2009-11-01T07:42:00Z,27.5400,-82.7400,1005.4,1111122 
COMPS,ioos:station:USF.COMPS:ANM:1,2009-11-01T07:48:00Z,27.5400,-82.7400,1005.3,1111122 
COMPS,ioos:station:USF.COMPS:ANM:1,2009-11-01T07:54:00Z,27.5400,-82.7400,1005.29,1111122 
COMPS,ioos:station:USF.COMPS:ANM:1,2009-11-01T08:00:00Z,27.5400,-82.7400,1005.29,1111122 
COMPS,ioos:station:USF.COMPS:ANM:1,2009-11-01T08:06:00Z,27.5400,-82.7400,1005.26,1111122 
COMPS,ioos:station:USF.COMPS:ANM:1,2009-11-01T08:12:00Z,27.5400,-82.7400,1005.29,1111122 
COMPS,ioos:station:USF.COMPS:ANM:1,2009-11-01T08:18:00Z,27.5400,-82.7400,1005.3,1111122 
COMPS,ioos:station:USF.COMPS:ANM:1,2009-11-01T08:24:00Z,27.5400,-82.7400,1005.3,1111122 
COMPS,ioos:station:USF.COMPS:ANM:1,2009-11-01T08:30:00Z,27.5400,-82.7400,1005.3,1111122 
COMPS,ioos:station:USF.COMPS:ANM:1,2009-11-01T08:36:00Z,27.5400,-82.7400,1005.25,1111122 
COMPS,ioos:station:USF.COMPS:ANM:1,2009-11-01T08:42:00Z,27.5400,-82.7400,1005.17,1111122 
COMPS,ioos:station:USF.COMPS:ANM:1,2009-11-01T08:48:00Z,27.5400,-82.7400,1005.18,1111122 
COMPS,ioos:station:USF.COMPS:ANM:1,2009-11-01T08:54:00Z,27.5400,-82.7400,1005.3,1111122 
COMPS,ioos:station:USF.COMPS:ANM:1,2009-11-01T09:00:00Z,27.5400,-82.7400,1005.33,1111122 
COMPS,ioos:station:USF.COMPS:ANM:1,2009-11-01T09:06:00Z,27.5400,-82.7400,1005.44,1111122 
COMPS,ioos:station:USF.COMPS:ANM:1,2009-11-01T09:12:00Z,27.5400,-82.7400,1005.44,1111122 
COMPS,ioos:station:USF.COMPS:ANM:1,2009-11-01T09:18:00Z,27.5400,-82.7400,1005.57,1111122 
COMPS,ioos:station:USF.COMPS:ANM:1,2009-11-01T09:24:00Z,27.5400,-82.7400,1005.57,1111122 
COMPS,ioos:station:USF.COMPS:ANM:1,2009-11-01T09:30:00Z,27.5400,-82.7400,1005.48,1111122 
COMPS,ioos:station:USF.COMPS:ANM:1,2009-11-01T09:36:00Z,27.5400,-82.7400,1005.13,1111122 
COMPS,ioos:station:USF.COMPS:ANM:1,2009-11-01T09:42:00Z,27.5400,-82.7400,1005.12,1111122 
COMPS,ioos:station:USF.COMPS:ANM:1,2009-11-01T09:48:00Z,27.5400,-82.7400,1005.05,1111122 
COMPS,ioos:station:USF.COMPS:ANM:1,2009-11-01T09:54:00Z,27.5400,-82.7400,1005.09,1111122 
COMPS,ioos:station:USF.COMPS:ANM:1,2009-11-01T10:00:00Z,27.5400,-82.7400,1005.22,1111122 
COMPS,ioos:station:USF.COMPS:ANM:1,2009-11-01T10:06:00Z,27.5400,-82.7400,1005.34,1111122 
COMPS,ioos:station:USF.COMPS:ANM:1,2009-11-01T10:12:00Z,27.5400,-82.7400,1005.42,1111122 
COMPS,ioos:station:USF.COMPS:ANM:1,2009-11-01T10:18:00Z,27.5400,-82.7400,1005.4,1111122 
COMPS,ioos:station:USF.COMPS:ANM:1,2009-11-01T10:24:00Z,27.5400,-82.7400,1005.45,1111122 
COMPS,ioos:station:USF.COMPS:ANM:1,2009-11-01T10:30:00Z,27.5400,-82.7400,1005.45,1111122 
COMPS,ioos:station:USF.COMPS:ANM:1,2009-11-01T10:36:00Z,27.5400,-82.7400,1005.49,1111122 
COMPS,ioos:station:USF.COMPS:ANM:1,2009-11-01T10:42:00Z,27.5400,-82.7400,1005.6,1111122 
COMPS,ioos:station:USF.COMPS:ANM:1,2009-11-01T10:48:00Z,27.5400,-82.7400,1005.73,1111122 
COMPS,ioos:station:USF.COMPS:ANM:1,2009-11-01T10:54:00Z,27.5400,-82.7400,1005.93,1111122 
COMPS,ioos:station:USF.COMPS:ANM:1,2009-11-01T11:00:00Z,27.5400,-82.7400,1005.98,1111122 
COMPS,ioos:station:USF.COMPS:ANM:1,2009-11-01T11:06:00Z,27.5400,-82.7400,1006.04,1111122 
COMPS,ioos:station:USF.COMPS:ANM:1,2009-11-01T11:12:00Z,27.5400,-82.7400,1006.06,1111122 
COMPS,ioos:station:USF.COMPS:ANM:1,2009-11-01T11:18:00Z,27.5400,-82.7400,1006.06,1111122 
COMPS,ioos:station:USF.COMPS:ANM:1,2009-11-01T11:24:00Z,27.5400,-82.7400,1006.12,1111122 
COMPS,ioos:station:USF.COMPS:ANM:1,2009-11-01T11:30:00Z,27.5400,-82.7400,1006.17,1111122 
COMPS,ioos:station:USF.COMPS:ANM:1,2009-11-01T11:36:00Z,27.5400,-82.7400,1006.24,1111122 
COMPS,ioos:station:USF.COMPS:ANM:1,2009-11-01T11:42:00Z,27.5400,-82.7400,1006.24,1111122 
COMPS,ioos:station:USF.COMPS:ANM:1,2009-11-01T11:48:00Z,27.5400,-82.7400,1006.24,1111122 
COMPS,ioos:station:USF.COMPS:ANM:1,2009-11-01T11:54:00Z,27.5400,-82.7400,1006.42,1111122 
COMPS,ioos:station:USF.COMPS:ANM:1,2009-11-01T12:00:00Z,27.5400,-82.7400,1006.53,1111122 
COMPS,ioos:station:USF.COMPS:ANM:1,2009-11-01T12:06:00Z,27.5400,-82.7400,1006.64,1111122 
COMPS,ioos:station:USF.COMPS:ANM:1,2009-11-01T12:12:00Z,27.5400,-82.7400,1006.72,1111122 
COMPS,ioos:station:USF.COMPS:ANM:1,2009-11-01T12:18:00Z,27.5400,-82.7400,1006.78,1111122 
COMPS,ioos:station:USF.COMPS:ANM:1,2009-11-01T12:24:00Z,27.5400,-82.7400,1006.77,1111122 
COMPS,ioos:station:USF.COMPS:ANM:1,2009-11-01T12:30:00Z,27.5400,-82.7400,1006.78,1111122 
COMPS,ioos:station:USF.COMPS:ANM:1,2009-11-01T12:36:00Z,27.5400,-82.7400,1006.77,1111122 
COMPS,ioos:station:USF.COMPS:ANM:1,2009-11-01T12:42:00Z,27.5400,-82.7400,1006.9,1111122 
COMPS,ioos:station:USF.COMPS:ANM:1,2009-11-01T12:48:00Z,27.5400,-82.7400,1007.01,1111122 
COMPS,ioos:station:USF.COMPS:ANM:1,2009-11-01T12:54:00Z,27.5400,-82.7400,1007.0,1111122 
COMPS,ioos:station:USF.COMPS:ANM:1,2009-11-01T13:00:00Z,27.5400,-82.7400,1007.12,1111122 
COMPS,ioos:station:USF.COMPS:ANM:1,2009-11-01T13:06:00Z,27.5400,-82.7400,1007.18,1111122 
COMPS,ioos:station:USF.COMPS:ANM:1,2009-11-01T13:12:00Z,27.5400,-82.7400,1007.26,1111122 
COMPS,ioos:station:USF.COMPS:ANM:1,2009-11-01T13:18:00Z,27.5400,-82.7400,1007.26,1111122 
COMPS,ioos:station:USF.COMPS:ANM:1,2009-11-01T13:24:00Z,27.5400,-82.7400,1007.29,1111122 
COMPS,ioos:station:USF.COMPS:ANM:1,2009-11-01T13:30:00Z,27.5400,-82.7400,1007.25,1111122 
COMPS,ioos:station:USF.COMPS:ANM:1,2009-11-01T13:36:00Z,27.5400,-82.7400,1007.28,1111122 
COMPS,ioos:station:USF.COMPS:ANM:1,2009-11-01T13:42:00Z,27.5400,-82.7400,1007.33,1111122 
COMPS,ioos:station:USF.COMPS:ANM:1,2009-11-01T13:48:00Z,27.5400,-82.7400,1007.37,1111122 
COMPS,ioos:station:USF.COMPS:ANM:1,2009-11-01T13:54:00Z,27.5400,-82.7400,1007.34,1111122 
COMPS,ioos:station:USF.COMPS:ANM:1,2009-11-01T14:00:00Z,27.5400,-82.7400,1007.32,1111122 
COMPS,ioos:station:USF.COMPS:ANM:1,2009-11-01T14:06:00Z,27.5400,-82.7400,1007.41,1111122 
COMPS,ioos:station:USF.COMPS:ANM:1,2009-11-01T14:12:00Z,27.5400,-82.7400,1007.36,1111122 
COMPS,ioos:station:USF.COMPS:ANM:1,2009-11-01T14:18:00Z,27.5400,-82.7400,1007.34,1111122 
COMPS,ioos:station:USF.COMPS:ANM:1,2009-11-01T14:24:00Z,27.5400,-82.7400,1007.36,1111122 
COMPS,ioos:station:USF.COMPS:ANM:1,2009-11-01T14:30:00Z,27.5400,-82.7400,1007.34,1111122 
COMPS,ioos:station:USF.COMPS:ANM:1,2009-11-01T14:36:00Z,27.5400,-82.7400,1007.37,1111122 
COMPS,ioos:station:USF.COMPS:ANM:1,2009-11-01T14:42:00Z,27.5400,-82.7400,1007.38,1111122 
COMPS,ioos:station:USF.COMPS:ANM:1,2009-11-01T14:48:00Z,27.5400,-82.7400,1007.41,1111122 
COMPS,ioos:station:USF.COMPS:ANM:1,2009-11-01T14:54:00Z,27.5400,-82.7400,1007.49,1111122 
COMPS,ioos:station:USF.COMPS:ANM:1,2009-11-01T15:00:00Z,27.5400,-82.7400,1007.46,1111122 
COMPS,ioos:station:USF.COMPS:ANM:1,2009-11-01T15:06:00Z,27.5400,-82.7400,1007.29,1111122 
COMPS,ioos:station:USF.COMPS:ANM:1,2009-11-01T15:12:00Z,27.5400,-82.7400,1007.24,1111122 
COMPS,ioos:station:USF.COMPS:ANM:1,2009-11-01T15:18:00Z,27.5400,-82.7400,1007.18,1111122 
COMPS,ioos:station:USF.COMPS:ANM:1,2009-11-01T15:24:00Z,27.5400,-82.7400,1007.14,1111122 
COMPS,ioos:station:USF.COMPS:ANM:1,2009-11-01T15:30:00Z,27.5400,-82.7400,1007.18,1111122 
COMPS,ioos:station:USF.COMPS:ANM:1,2009-11-01T15:36:00Z,27.5400,-82.7400,1007.28,1111122 
COMPS,ioos:station:USF.COMPS:ANM:1,2009-11-01T15:42:00Z,27.5400,-82.7400,1007.3,1111122 
COMPS,ioos:station:USF.COMPS:ANM:1,2009-11-01T15:48:00Z,27.5400,-82.7400,1007.28,1111122 
COMPS,ioos:station:USF.COMPS:ANM:1,2009-11-01T15:54:00Z,27.5400,-82.7400,1007.32,1111122 
COMPS,ioos:station:USF.COMPS:ANM:1,2009-11-01T16:00:00Z,27.5400,-82.7400,1007.28,1111122 
COMPS,ioos:station:USF.COMPS:ANM:1,2009-11-01T16:06:00Z,27.5400,-82.7400,1007.3,1111122 
COMPS,ioos:station:USF.COMPS:ANM:1,2009-11-01T16:12:00Z,27.5400,-82.7400,1007.28,1111122 
COMPS,ioos:station:USF.COMPS:ANM:1,2009-11-01T16:18:00Z,27.5400,-82.7400,1007.29,1111122 
COMPS,ioos:station:USF.COMPS:ANM:1,2009-11-01T16:24:00Z,27.5400,-82.7400,1007.22,1111122 
COMPS,ioos:station:USF.COMPS:ANM:1,2009-11-01T16:30:00Z,27.5400,-82.7400,1007.12,1111122 
COMPS,ioos:station:USF.COMPS:ANM:1,2009-11-01T16:36:00Z,27.5400,-82.7400,1007.05,1111122 
COMPS,ioos:station:USF.COMPS:ANM:1,2009-11-01T16:42:00Z,27.5400,-82.7400,1007.02,1111122 
COMPS,ioos:station:USF.COMPS:ANM:1,2009-11-01T16:48:00Z,27.5400,-82.7400,1006.97,1111122 
COMPS,ioos:station:USF.COMPS:ANM:1,2009-11-01T16:54:00Z,27.5400,-82.7400,1006.9,1111122 
COMPS,ioos:station:USF.COMPS:ANM:1,2009-11-01T17:00:00Z,27.5400,-82.7400,1006.81,1111122 
COMPS,ioos:station:USF.COMPS:ANM:1,2009-11-01T17:06:00Z,27.5400,-82.7400,1006.66,1111122 
COMPS,ioos:station:USF.COMPS:ANM:1,2009-11-01T17:12:00Z,27.5400,-82.7400,1006.49,1111122 
COMPS,ioos:station:USF.COMPS:ANM:1,2009-11-01T17:18:00Z,27.5400,-82.7400,1006.33,1111122 
COMPS,ioos:station:USF.COMPS:ANM:1,2009-11-01T17:24:00Z,27.5400,-82.7400,1006.28,1111122 
COMPS,ioos:station:USF.COMPS:ANM:1,2009-11-01T17:30:00Z,27.5400,-82.7400,1006.26,1111122 
COMPS,ioos:station:USF.COMPS:ANM:1,2009-11-01T17:36:00Z,27.5400,-82.7400,1006.17,1111122 
COMPS,ioos:station:USF.COMPS:ANM:1,2009-11-01T17:42:00Z,27.5400,-82.7400,1006.1,1111122 
COMPS,ioos:station:USF.COMPS:ANM:1,2009-11-01T17:48:00Z,27.5400,-82.7400,1006.0,1111122 
COMPS,ioos:station:USF.COMPS:ANM:1,2009-11-01T17:54:00Z,27.5400,-82.7400,1005.9,1111122 
COMPS,ioos:station:USF.COMPS:ANM:1,2009-11-01T18:00:00Z,27.5400,-82.7400,1005.84,1111122 
COMPS,ioos:station:USF.COMPS:ANM:1,2009-11-01T18:06:00Z,27.5400,-82.7400,1005.8,1111122 
COMPS,ioos:station:USF.COMPS:ANM:1,2009-11-01T18:12:00Z,27.5400,-82.7400,1005.72,1111122 
COMPS,ioos:station:USF.COMPS:ANM:1,2009-11-01T18:18:00Z,27.5400,-82.7400,1005.62,1111122 
COMPS,ioos:station:USF.COMPS:ANM:1,2009-11-01T18:24:00Z,27.5400,-82.7400,1005.58,1111122 
COMPS,ioos:station:USF.COMPS:ANM:1,2009-11-01T18:30:00Z,27.5400,-82.7400,1005.52,1111122 
COMPS,ioos:station:USF.COMPS:ANM:1,2009-11-01T18:36:00Z,27.5400,-82.7400,1005.44,1111122 
COMPS,ioos:station:USF.COMPS:ANM:1,2009-11-01T18:42:00Z,27.5400,-82.7400,1005.4,1111122 
COMPS,ioos:station:USF.COMPS:ANM:1,2009-11-01T18:48:00Z,27.5400,-82.7400,1005.28,1111122 
COMPS,ioos:station:USF.COMPS:ANM:1,2009-11-01T18:54:00Z,27.5400,-82.7400,1005.26,1111122 
COMPS,ioos:station:USF.COMPS:ANM:1,2009-11-01T19:00:00Z,27.5400,-82.7400,1005.2,1111122 
COMPS,ioos:station:USF.COMPS:ANM:1,2009-11-01T19:06:00Z,27.5400,-82.7400,1005.13,1111122 
COMPS,ioos:station:USF.COMPS:ANM:1,2009-11-01T19:12:00Z,27.5400,-82.7400,1005.1,1111122 
COMPS,ioos:station:USF.COMPS:ANM:1,2009-11-01T19:18:00Z,27.5400,-82.7400,1005.12,1111122 
COMPS,ioos:station:USF.COMPS:ANM:1,2009-11-01T19:24:00Z,27.5400,-82.7400,1005.05,1111122 
COMPS,ioos:station:USF.COMPS:ANM:1,2009-11-01T19:30:00Z,27.5400,-82.7400,1004.97,1111122 
COMPS,ioos:station:USF.COMPS:ANM:1,2009-11-01T19:36:00Z,27.5400,-82.7400,1005.02,1111122 
COMPS,ioos:station:USF.COMPS:ANM:1,2009-11-01T19:42:00Z,27.5400,-82.7400,1005.0,1111122 
COMPS,ioos:station:USF.COMPS:ANM:1,2009-11-01T19:48:00Z,27.5400,-82.7400,1005.0,1111122 
COMPS,ioos:station:USF.COMPS:ANM:1,2009-11-01T19:54:00Z,27.5400,-82.7400,1005.02,1111122 
COMPS,ioos:station:USF.COMPS:ANM:1,2009-11-01T20:00:00Z,27.5400,-82.7400,1005.0,1111122 
COMPS,ioos:station:USF.COMPS:ANM:1,2009-11-01T20:06:00Z,27.5400,-82.7400,1004.92,1111122 
COMPS,ioos:station:USF.COMPS:ANM:1,2009-11-01T20:12:00Z,27.5400,-82.7400,1004.9,1111122 
COMPS,ioos:station:USF.COMPS:ANM:1,2009-11-01T20:18:00Z,27.5400,-82.7400,1004.88,1111122 
COMPS,ioos:station:USF.COMPS:ANM:1,2009-11-01T20:24:00Z,27.5400,-82.7400,1004.89,1111122 
COMPS,ioos:station:USF.COMPS:ANM:1,2009-11-01T20:30:00Z,27.5400,-82.7400,1004.84,1111122 
COMPS,ioos:station:USF.COMPS:ANM:1,2009-11-01T20:36:00Z,27.5400,-82.7400,1004.89,1111122 
COMPS,ioos:station:USF.COMPS:ANM:1,2009-11-01T20:42:00Z,27.5400,-82.7400,1004.85,1111122 
COMPS,ioos:station:USF.COMPS:ANM:1,2009-11-01T20:48:00Z,27.5400,-82.7400,1004.94,1111122 
COMPS,ioos:station:USF.COMPS:ANM:1,2009-11-01T20:54:00Z,27.5400,-82.7400,1005.02,1111122 
COMPS,ioos:station:USF.COMPS:ANM:1,2009-11-01T21:00:00Z,27.5400,-82.7400,1005.01,1111122 
COMPS,ioos:station:USF.COMPS:ANM:1,2009-11-01T21:06:00Z,27.5400,-82.7400,1004.98,1111122 
COMPS,ioos:station:USF.COMPS:ANM:1,2009-11-01T21:12:00Z,27.5400,-82.7400,1005.0,1111122 
COMPS,ioos:station:USF.COMPS:ANM:1,2009-11-01T21:18:00Z,27.5400,-82.7400,1005.02,1111122 
COMPS,ioos:station:USF.COMPS:ANM:1,2009-11-01T21:24:00Z,27.5400,-82.7400,1005.06,1111122 
COMPS,ioos:station:USF.COMPS:ANM:1,2009-11-01T21:30:00Z,27.5400,-82.7400,1005.09,1111122 
COMPS,ioos:station:USF.COMPS:ANM:1,2009-11-01T21:36:00Z,27.5400,-82.7400,1005.09,1111122 
COMPS,ioos:station:USF.COMPS:ANM:1,2009-11-01T21:42:00Z,27.5400,-82.7400,1005.17,1111122 
COMPS,ioos:station:USF.COMPS:ANM:1,2009-11-01T21:48:00Z,27.5400,-82.7400,1005.22,1111122 
COMPS,ioos:station:USF.COMPS:ANM:1,2009-11-01T21:54:00Z,27.5400,-82.7400,1005.32,1111122 
COMPS,ioos:station:USF.COMPS:ANM:1,2009-11-01T22:00:00Z,27.5400,-82.7400,1005.37,1111122 
COMPS,ioos:station:USF.COMPS:ANM:1,2009-11-01T22:06:00Z,27.5400,-82.7400,1005.4,1111122 
COMPS,ioos:station:USF.COMPS:ANM:1,2009-11-01T22:12:00Z,27.5400,-82.7400,1005.42,1111122 
COMPS,ioos:station:USF.COMPS:ANM:1,2009-11-01T22:18:00Z,27.5400,-82.7400,1005.4,1111122 
COMPS,ioos:station:USF.COMPS:ANM:1,2009-11-01T22:24:00Z,27.5400,-82.7400,1005.44,1111122 
COMPS,ioos:station:USF.COMPS:ANM:1,2009-11-01T22:30:00Z,27.5400,-82.7400,1005.44,1111122 
COMPS,ioos:station:USF.COMPS:ANM:1,2009-11-01T22:36:00Z,27.5400,-82.7400,1005.52,1111122 
COMPS,ioos:station:USF.COMPS:ANM:1,2009-11-01T22:42:00Z,27.5400,-82.7400,1005.54,1111122 
COMPS,ioos:station:USF.COMPS:ANM:1,2009-11-01T22:48:00Z,27.5400,-82.7400,1005.69,1111122 
COMPS,ioos:station:USF.COMPS:ANM:1,2009-11-01T22:54:00Z,27.5400,-82.7400,1005.69,1111122 
COMPS,ioos:station:USF.COMPS:ANM:1,2009-11-01T23:00:00Z,27.5400,-82.7400,1005.69,1111122 
COMPS,ioos:station:USF.COMPS:ANM:1,2009-11-01T23:06:00Z,27.5400,-82.7400,1005.73,1111122 
COMPS,ioos:station:USF.COMPS:ANM:1,2009-11-01T23:12:00Z,27.5400,-82.7400,1005.81,1111122 
COMPS,ioos:station:USF.COMPS:ANM:1,2009-11-01T23:18:00Z,27.5400,-82.7400,1005.81,1111122 
COMPS,ioos:station:USF.COMPS:ANM:1,2009-11-01T23:24:00Z,27.5400,-82.7400,1005.77,1111122 
COMPS,ioos:station:USF.COMPS:ANM:1,2009-11-01T23:30:00Z,27.5400,-82.7400,1005.74,1111122 
COMPS,ioos:station:USF.COMPS:ANM:1,2009-11-01T23:36:00Z,27.5400,-82.7400,1005.78,1111122 
COMPS,ioos:station:USF.COMPS:ANM:1,2009-11-01T23:42:00Z,27.5400,-82.7400,1005.8,1111122 
COMPS,ioos:station:USF.COMPS:ANM:1,2009-11-01T23:48:00Z,27.5400,-82.7400,1005.81,1111122 
COMPS,ioos:station:USF.COMPS:ANM:1,2009-11-01T23:54:00Z,27.5400,-82.7400,1005.85,1111122 
COMPS,ioos:station:USF.COMPS:ANM:1,2009-11-02T00:00:00Z,27.5400,-82.7400,1005.88,1111122 
COMPS,ioos:station:USF.COMPS:ANM:1,2009-11-02T00:06:00Z,27.5400,-82.7400,1005.93,1111122 
COMPS,ioos:station:USF.COMPS:ANM:1,2009-11-02T00:12:00Z,27.5400,-82.7400,1005.94,1111122 
COMPS,ioos:station:USF.COMPS:ANM:1,2009-11-02T00:18:00Z,27.5400,-82.7400,1006.0,1111122 
COMPS,ioos:station:USF.COMPS:ANM:1,2009-11-02T00:24:00Z,27.5400,-82.7400,1006.0,1111122 
COMPS,ioos:station:USF.COMPS:ANM:1,2009-11-02T00:30:00Z,27.5400,-82.7400,1006.09,1111122 
COMPS,ioos:station:USF.COMPS:ANM:1,2009-11-02T00:36:00Z,27.5400,-82.7400,1006.2,1111122 
COMPS,ioos:station:USF.COMPS:ANM:1,2009-11-02T00:42:00Z,27.5400,-82.7400,1006.21,1111122 
COMPS,ioos:station:USF.COMPS:ANM:1,2009-11-02T00:48:00Z,27.5400,-82.7400,1006.3,1111122 
COMPS,ioos:station:USF.COMPS:ANM:1,2009-11-02T00:54:00Z,27.5400,-82.7400,1006.37,1111122 
COMPS,ioos:station:USF.COMPS:ANM:1,2009-11-02T01:00:00Z,27.5400,-82.7400,1006.37,1111122 
COMPS,ioos:station:USF.COMPS:ANM:1,2009-11-02T01:06:00Z,27.5400,-82.7400,1006.48,1111122 
COMPS,ioos:station:USF.COMPS:ANM:1,2009-11-02T01:12:00Z,27.5400,-82.7400,1006.5,1111122 
COMPS,ioos:station:USF.COMPS:ANM:1,2009-11-02T01:18:00Z,27.5400,-82.7400,1006.52,1111122 
COMPS,ioos:station:USF.COMPS:ANM:1,2009-11-02T01:24:00Z,27.5400,-82.7400,1006.48,1111122 
COMPS,ioos:station:USF.COMPS:ANM:1,2009-11-02T01:30:00Z,27.5400,-82.7400,1006.5,1111122 
COMPS,ioos:station:USF.COMPS:ANM:1,2009-11-02T01:36:00Z,27.5400,-82.7400,1006.54,1111122 
COMPS,ioos:station:USF.COMPS:ANM:1,2009-11-02T01:42:00Z,27.5400,-82.7400,1006.58,1111122 
COMPS,ioos:station:USF.COMPS:ANM:1,2009-11-02T01:48:00Z,27.5400,-82.7400,1006.7,1111122 
COMPS,ioos:station:USF.COMPS:ANM:1,2009-11-02T01:54:00Z,27.5400,-82.7400,1006.72,1111122 
COMPS,ioos:station:USF.COMPS:ANM:1,2009-11-02T02:00:00Z,27.5400,-82.7400,1006.72,1111122 
COMPS,ioos:station:USF.COMPS:ANM:1,2009-11-02T02:06:00Z,27.5400,-82.7400,1006.76,1111122 
COMPS,ioos:station:USF.COMPS:ANM:1,2009-11-02T02:12:00Z,27.5400,-82.7400,1006.77,1111122 
COMPS,ioos:station:USF.COMPS:ANM:1,2009-11-02T02:18:00Z,27.5400,-82.7400,1006.77,1111122 
COMPS,ioos:station:USF.COMPS:ANM:1,2009-11-02T02:24:00Z,27.5400,-82.7400,1006.77,1111122 
COMPS,ioos:station:USF.COMPS:ANM:1,2009-11-02T02:30:00Z,27.5400,-82.7400,1006.86,1111122 